Simultaneous Nadir Overpasses (SNOs) Predictions

Prediction of SNOs between NOAA-19 and TERRA Satellite Orbit:

Table of predicted SNOs for the next 14.0 days since TLE Epoch: 4/20/2012
Index Date (NOAA-19) Time (NOAA-19) NOAA-19 Lat,Lon Date (TERRA) Time (TERRA) TERRA Lat,Lon Distance(km) Time Diff (sec)
1 04/21/2012 11:28:50 -68.98,-172.97 04/21/2012 11:29:27 -68.96,-173.01 2.48 37
2 04/21/2012 12:19:56 68.81, -5.53 04/21/2012 12:18:55 68.80, -5.57 2.24 61
3 04/23/2012 15:22:56 69.88, -52.74 04/23/2012 15:24:03 69.79, -50.63 81.73 67
4 04/23/2012 16:13:35 -68.98, 115.84 04/23/2012 16:13:46 -68.97, 115.91 3.47 11
5 04/23/2012 17:04:32 68.33, -76.07 04/23/2012 17:03:21 68.41, -77.13 44.67 71
6 04/25/2012 20:07:25 69.04,-122.70 04/25/2012 20:08:35 69.06,-122.68 2.51 70
7 04/25/2012 20:58:18 -68.89, 44.79 04/25/2012 20:58:06 -68.91, 44.75 2.68 12
8 04/28/2012 00:52:09 69.00, 166.18 04/28/2012 00:52:55 68.99, 166.15 1.74 46
9 04/28/2012 01:43:03 -68.90, -26.41 04/28/2012 01:42:25 -68.89, -26.35 2.52 38
10 04/30/2012 05:36:53 68.96, 95.06 04/30/2012 05:37:14 68.96, 95.03 0.99 21
11 04/30/2012 06:27:46 -68.80, -97.46 04/30/2012 06:26:45 -68.80, -97.53 2.89 61
12 05/02/2012 09:30:45 -69.83,-144.61 05/02/2012 09:31:53 -69.75,-142.64 76.04 68
13 05/02/2012 10:21:37 68.92, 23.92 05/02/2012 10:21:33 68.91, 23.90 1.30 4
14 05/02/2012 11:12:22 -68.34,-168.02 05/02/2012 11:11:11 -68.37,-169.14 46.03 71
15 05/04/2012 14:15:15 -69.06, 145.34 05/04/2012 14:16:24 -69.04, 145.34 1.95
